Miscellaneous Local Product
Issued by NWS Hastings, NE

Home | Current Version | Previous Version | Text Only | Print | Product List | Glossary On
Versions: 1 2 3 4 5 6 7 8 9 10 11 12 13 14 15 16 17 18 19 20 21 22 23 24 25 26 27 28 29 30 31 32 33 34 35 36 37 38 39 40 41 42 43 44 45 46 47 48 49 50
000
AXUS43 KGID 221602
MISGRI

GID CWA HOURLY WEATHER ROUNDUP
NATIONAL WEATHER SERVICE HASTINGS NE
1100 AM CDT TUE JUL 22 2014

NOTE: "FAIR" INDICATES FEW OR NO CLOUDS BELOW 12,000 FEET WITH NO
SIGNIFICANT WEATHER AND/OR OBSTRUCTIONS TO VISIBILITY.

...SOUTH CENTRAL NEBRASKA...

CITY           SKY/WX    TMP DP  RH WIND       PRES   REMARKS
GRAND ISLAND   PTSUNNY   82  64  54 E8        30.08R
HASTINGS       MOSUNNY   84  63  49 E9        30.07S
KEARNEY        MOSUNNY   84  63  48 SE12      30.10R
ORD            NOT AVBL
YORK           MOSUNNY   82  73  74 E7        30.05S
AURORA         MOSUNNY   83  70  64 NE8       30.06R
LEXINGTON      SUNNY     84  62  47 E9        30.13R
HOLDREGE       SUNNY     83  63  51 E13       30.09S
HEBRON         MOSUNNY   89  68  50 W7        30.04R HX  93

...NEBRASKA PANHANDLE...

CITY           SKY/WX    TMP DP  RH WIND       PRES   REMARKS
CHADRON        SUNNY     79  60  52 VRB7      30.22R
ALLIANCE       SUNNY     86  50  28 SE16      30.23R
SCOTTSBLUFF    SUNNY     82  59  45 SE9       30.25R
SIDNEY         SUNNY     83  55  38 VRB6      30.28R

...WESTERN AND NORTH CENTRAL NEBRASKA...

CITY           SKY/WX    TMP DP  RH WIND       PRES   REMARKS
VALENTINE      MOSUNNY   80  64  58 NE13      30.18R
AINSWORTH      SUNNY     74  62  66 E6        30.16R
ONEILL         MOSUNNY   77  61  56 NE7       30.13F
BROKEN BOW     SUNNY     84  61  45 NE12G21   30.16R
IMPERIAL       SUNNY     84  58  40 E8        30.21R
NORTH PLATTE   SUNNY     84  59  42 E14       30.17R
MCCOOK         SUNNY     86  61  42 E20G28    30.11R

...EASTERN NEBRASKA...

CITY           SKY/WX    TMP DP  RH WIND       PRES   REMARKS
NORFOLK        PTSUNNY   83  64  52 NW22      30.09R
SO SIOUX CITY  PTSUNNY   83  67  58 N17       30.02R
TEKAMAH        PTSUNNY   89  69  51 N9        29.99R HX  93
COLUMBUS       PTSUNNY   84  66  54 CALM      30.05R
ALBION         CLOUDY    77  62  59 N14G21    30.12R
OMAHA EPPLEY   MOSUNNY   88  74  63 E10       29.96F HX  96
OFFUTT AFB     PTSUNNY   88  79  73 E8        29.97S HX 103
MILLARD        MOSUNNY   89  75  63 E5        29.98R HX  99
LINCOLN        SUNNY     90  74  59 E7        30.01R HX  99
NEBRASKA CITY  SUNNY     86  71  61 W3        30.00R HX  92
BEATRICE       SUNNY     83  71  65 W3        30.01S
FALLS CITY     SUNNY     90  73  57 W7        30.00R HX  98

...NORTHERN KANSAS...

CITY           SKY/WX    TMP DP  RH WIND       PRES   REMARKS
GOODLAND       SUNNY     85  60  42 NE14      30.17S
HILL CITY      MOSUNNY   86  64  47 SE9       30.09F
NORTON         SUNNY     86  59  39 E7        30.09F
PHILLIPSBURG   SUNNY     88  61  40 SE3       30.07F
SMITH CENTER   SUNNY     88  63  42 S3        30.07F
HAYS           MOSUNNY   84  63  48 CALM      30.11S
RUSSELL        SUNNY     87  66  49 SW3       30.08F
CONCORDIA      PTSUNNY   93  65  39 NW6       30.04F HX  95
SALINA         SUNNY     93  67  42 W6        30.06F HX  96
TOPEKA         MOSUNNY   89  76  65 W6        30.04S HX 100



USA.gov is the U.S. government's official web portal to all federal, state and local government web resources and services.